Temp
10 10 10 10 10 10 10 10 9 11 10 12 12 14 13 14 14 14 13 13 12 12 12 12 12 13 13 12 12 12 12 13 13 12 12 12 12 12 12 12 12 12 12 12
9 10 9 9 9 9 9 10 9 10 10 12 13 13 13 14 15 14 14 13 12 12 12 11 11 10 13 12 12 12 12 12 13 12 12 12 12 12 12 12 11 11 11 11
8 9 9 8 9 9 9 10 10 9 11 11 12 13 13 14 13 13 13 12 11 10 10 9 8 8 9 12 12 12 12 12 13 12 11 12 12 12 11 11 11 11 11 11
7 8 6 9 10 10 9 10 10 11 12 12 12 12 12 12 12 12 11 10 9 8 8 7 6 7 7 10 12 11 11 12 12 11 11 11 11 11 11 10 10 10 9 9
4 6 8 9 10 11 10 10 10 10 11 11 11 11 11 11 10 9 8 8 7 6 6 5 6 6 7 9 12 12 12 12 12 13 11 10 10 10 9 8 7 7 6 7
5 5 5 9 10 11 9 8 8 7 9 11 11 11 11 9 8 7 6 6 5 5 4 4 4 5 7 12 12 12 12 12 12 11 11 10 10 8 6 6 4 3 2 1
7 6 7 9 10 11 8 9 7 8 10 10 10 9 9 8 6 6 5 4 4 4 3 2 3 4 6 5 5 7 11 11 10 10 9 9 7 6 4 2 1 -1 -2 -2
6 6 5 8 8 8 9 9 9 9 10 10 9 10 8 6 5 4 4 4 3 3 2 1 1 3 3 3 2 4 7 7 6 5 4 4 3 1 0 -1 -2 -3 -3 -4
7 7 7 6 8 8 9 8 9 9 10 9 8 9 6 5 4 4 3 3 2 2 1 -0 -0 0 1 1 1 0 2 1 1 1 0 1 -1 -2 -2 -3 -3 -3 -4 -4
6 7 6 6 8 9 7 7 9 7 7 7 7 6 5 3 2 2 2 2 1 1 -0 -1 -2 -2 -1 -1 -1 -1 -2 -2 -2 -2 -2 -1 -2 -2 -3 -3 -3 -4 -5 -6
7 6 7 9 8 7 7 8 4 4 3 4 4 3 2 1 0 0 0 0 0 -0 -1 -2 -2 -3 -3 -3 -2 -3 -4 -4 -4 -5 -5 -5 -5 -5 -5 -5 -5 -5 -6 -6
6 6 6 7 7 6 5 5 5 4 2 2 2 2 1 -1 -1 -2 -2 -1 -1 -2 -2 -3 -3 -4 -4 -4 -4 -4 -4 -5 -5 -5 -5 -5 -5 -6 -5 -5 -4 -5 -6 -5
5 6 7 5 6 5 3 3 2 2 2 1 -0 -1 -1 -2 -4 -4 -4 -4 -4 -3 -4 -4 -5 -5 -5 -5 -4 -5 -5 -5 -6 -6 -6 -5 -5 -5 -6 -6 -6 -6 -6 -7
3 5 5 5 5 5 3 1 0 -0 -1 -1 -2 -2 -3 -4 -5 -5 -6 -6 -5 -5 -5 -5 -6 -6 -6 -6 -6 -6 -6 -6 -6 -6 -6 -6 -6 -6 -7 -7 -7 -7 -8 -8
2 3 3 3 3 4 5 3 0 -1 -2 -2 -3 -3 -4 -4 -5 -6 -6 -6 -6 -6 -6 -6 -7 -7 -7 -7 -7 -8 -8 -8 -8 -8 -7 -7 -8 -8 -8 -8 -9 -9 -10 -9
1 2 1 1 1 2 1 0 -1 -1 -2 -3 -4 -4 -5 -6 -7 -7 -7 -7 -7 -7 -7 -7 -7 -8 -8 -8 -8 -8 -8 -8 -8 -9 -9 -9 -10 -10 -11 -11 -11 -12 -13 -13
-0 -0 -0 -1 -0 0 0 -1 -1 -2 -2 -3 -4 -5 -6 -7 -7 -8 -8 -8 -8 -8 -8 -8 -7 -8 -8 -8 -9 -9 -9 -9 -9 -10 -10 -10 -11 -11 -12 -12 -13 -14 -14 -13
-2 -2 -2 -2 -2 -2 -1 -1 -2 -3 -4 -5 -6 -7 -7 -7 -8 -8 -8 -8 -8 -8 -8 -8 -8 -8 -8 -8 -9 -9 -9 -10 -10 -11 -11 -11 -12 -12 -13 -14 -14 -15 -15 -14
-4 -4 -4 -3 -4 -4 -3 -3 -5 -6 -6 -7 -7 -8 -8 -8 -8 -9 -9 -9 -9 -9 -9 -8 -8 -8 -8 -9 -8 -9 -10 -10 -11 -12 -12 -13 -13 -13 -14 -14 -15 -16 -15 -15
-6 -6 -6 -6 -6 -7 -6 -7 -6 -7 -8 -8 -8 -9 -9 -9 -9 -9 -10 -10 -10 -10 -9 -9 -9 -9 -9 -9 -9 -10 -11 -11 -12 -13 -13 -13 -14 -15 -15 -15 -15 -15 -15 -16
-9 -8 -9 -9 -9 -9 -9 -8 -8 -9 -9 -9 -9 -10 -10 -10 -10 -10 -10 -10 -10 -10 -10 -9 -9 -10 -10 -10 -10 -11 -11 -12 -13 -13 -13 -14 -14 -14 -15 -15 -15 -15 -16 -16
-11 -12 -12 -11 -11 -11 -11 -10 -10 -10 -10 -10 -10 -10 -11 -11 -11 -11 -11 -11 -11 -10 -10 -11 -11 -11 -11 -10 -11 -11 -12 -12 -12 -13 -13 -13 -14 -14 -15 -15 -15 -16 -16 -17
-10 -11 -11 -11 -12 -12 -12 -11 -11 -11 -11 -11 -11 -11 -11 -11 -11 -11 -12 -12 -11 -11 -11 -12 -12 -11 -10 -11 -11 -11 -12 -12 -12 -13 -13 -13 -14 -14 -15 -15 -16 -16 -17 -17
-10 -10 -11 -11 -11 -12 -14 -13 -13 -12 -12 -12 -12 -12 -12 -12 -12 -12 -12 -12 -11 -11 -12 -12 -12 -11 -11 -11 -12 -12 -12 -12 -13 -13 -14 -14 -14 -15 -15 -16 -16 -17 -17 -18
-10 -11 -11 -12 -13 -13 -13 -13 -13 -13 -13 -13 -13 -12 -12 -12 -12 -13 -12 -12 -12 -12 -12 -12 -12 -11 -12 -12 -12 -12 -13 -13 -13 -13 -14 -14 -15 -15 -16 -16 -17 -17 -18 -18
-10 -10 -11 -11 -12 -12 -13 -13 -14 -14 -14 -14 -14 -14 -13 -13 -13 -13 -13 -13 -13 -13 -13 -13 -12 -12 -12 -13 -13 -13 -13 -14 -14 -14 -15 -15 -16 -16 -16 -17 -17 -18 -18 -19
-10 -11 -12 -12 -12 -13 -13 -13 -14 -14 -14 -14 -14 -14 -14 -13 -13 -14 -14 -14 -14 -14 -14 -14 -13 -13 -13 -14 -14 -14 -15 -15 -15 -15 -16 -16 -16 -17 -17 -18 -18 -18 -18 -19
Height
732 731 728 729 733 734 733 727 740 722 726 710 706 700 695 689 687 686 682 676 683 681 674 666 661 654 654 655 658 664 671 678 683 688 693 697 701 704 705 708 710 713 716 720
736 731 734 733 733 734 727 720 728 721 717 702 699 695 692 686 682 681 678 673 679 678 675 671 666 659 653 653 658 662 667 674 679 685 690 695 700 703 706 708 711 714 717 721
741 734 735 736 722 722 719 718 717 720 704 702 698 692 688 683 683 680 681 677 682 679 676 671 668 665 657 652 654 658 664 669 676 682 686 691 696 701 705 708 712 715 719 723
747 740 753 716 708 708 714 707 707 701 695 695 691 689 687 683 684 683 684 678 683 680 676 674 668 665 657 654 653 656 661 667 673 680 683 688 694 697 703 708 712 716 720 724
765 745 723 715 708 703 707 704 701 697 689 685 685 688 688 686 688 688 690 688 685 683 679 675 670 663 647 652 650 651 656 662 668 674 680 684 690 696 702 708 713 717 722 726
749 747 751 712 699 698 705 711 702 703 689 684 684 688 686 690 691 692 693 690 689 686 685 681 677 666 649 639 648 649 654 660 664 669 674 680 687 695 702 708 714 720 725 731
729 735 722 706 699 697 716 710 704 697 691 688 687 691 690 692 693 695 692 692 691 690 688 682 673 662 656 649 648 649 653 659 665 672 674 679 686 693 701 709 716 724 729 737
728 735 741 707 703 709 706 700 699 695 692 688 687 688 693 695 694 694 691 691 691 689 684 679 673 667 662 657 658 653 656 660 666 674 676 679 686 696 703 710 718 728 735 743
727 722 716 714 709 704 701 702 699 695 691 691 691 695 699 699 698 694 694 693 690 687 685 683 680 675 670 668 668 665 659 664 673 677 681 682 693 700 706 714 720 730 737 745
723 715 715 712 706 703 704 703 698 699 695 693 694 698 702 704 703 700 697 694 692 689 688 688 686 681 677 676 675 671 673 673 679 684 684 690 698 705 709 718 727 734 735 747
720 717 712 704 705 705 704 699 704 705 704 703 704 706 708 710 710 707 702 699 696 694 695 695 693 690 687 685 682 680 683 688 689 691 695 697 708 714 719 728 732 741 743 753
721 720 717 711 707 707 710 712 711 711 712 712 710 710 712 713 713 712 711 708 704 703 702 701 699 697 695 693 690 691 694 696 700 702 705 710 716 725 734 737 741 746 752 751
731 719 713 713 713 714 716 719 720 719 718 719 717 717 717 717 717 717 715 713 711 710 709 707 705 704 703 700 699 700 703 705 708 711 715 719 725 730 734 750 756 756 762 766
735 726 722 722 721 721 723 726 724 725 726 724 723 722 722 722 721 720 721 722 718 716 714 711 710 709 708 708 707 708 710 715 717 721 725 728 733 738 742 749 760 767 776 781
741 740 740 736 730 726 725 727 728 730 730 729 729 728 728 728 728 728 726 724 722 724 723 721 719 719 717 716 715 716 719 722 725 729 734 737 741 745 751 758 765 772 780 790
746 742 740 738 737 734 733 733 732 734 734 734 733 734 734 733 733 733 732 731 729 729 727 724 723 723 721 723 725 726 728 732 733 737 742 745 750 753 760 767 774 780 786 791
749 744 744 743 742 739 738 739 738 737 737 737 738 738 739 739 740 739 738 736 734 734 733 731 731 729 728 731 732 734 736 739 744 748 752 756 761 765 770 775 780 785 790 796
761 758 755 753 749 745 742 742 742 741 740 741 741 742 742 742 742 742 742 741 739 739 738 737 735 735 736 739 740 742 745 750 754 756 761 765 769 772 777 780 786 791 797 801
763 761 758 755 754 751 748 746 746 745 745 745 745 746 746 746 747 747 746 745 745 744 746 745 743 742 744 746 748 751 752 755 760 765 768 772 774 780 784 789 794 798 802 807
765 763 761 759 757 755 752 750 748 748 748 748 749 750 750 750 751 751 750 750 751 752 752 752 751 751 753 755 756 758 760 763 766 771 775 778 782 787 792 796 800 803 807 811
768 766 765 763 760 758 755 753 752 751 751 751 752 753 754 755 755 756 756 756 758 757 757 757 757 758 759 761 762 763 767 770 773 775 779 785 789 794 798 802 804 808 812 816
770 768 767 766 763 761 759 757 755 754 754 753 755 756 757 759 759 760 761 762 763 762 761 762 763 764 766 767 768 769 772 775 779 783 788 792 796 800 804 807 810 813 815 818
772 771 769 768 766 765 762 760 759 758 757 758 758 759 760 761 763 764 765 767 766 767 767 768 769 770 771 773 775 776 779 782 786 790 794 798 801 805 808 811 814 816 818 822
773 772 771 769 768 766 766 765 763 762 762 762 762 763 763 764 766 767 769 770 770 771 772 774 775 776 777 779 781 783 786 789 792 796 800 802 805 809 812 814 815 818 821 823
773 772 772 771 770 770 769 768 767 766 766 766 766 766 767 768 768 772 772 774 775 775 776 779 780 781 782 784 786 789 792 795 798 800 803 806 808 811 813 816 818 820 823 824
773 773 773 772 772 771 771 770 769 769 769 769 770 771 771 772 774 775 777 778 780 781 782 783 785 786 788 790 792 795 797 799 802 804 807 809 811 813 815 818 820 822 824 825
775 775 775 774 774 773 772 772 772 772 772 773 773 775 775 776 778 779 782 783 784 785 786 788 790 792 793 795 797 800 802 804 806 808 810 811 814 816 817 820 822 823 824 825
Wind_Speed
4 4 3 3 4 6 7 6 5 13 9 19 12 17 16 16 2 2 6 11 12 16 14 16 18 9 13 15 20 24 25 22 18 19 21 22 21 18 17 17 16 17 20 18
7 3 5 5 7 10 8 10 8 16 20 20 18 17 16 12 5 3 7 5 7 12 12 12 17 19 9 15 19 24 24 23 20 18 20 20 20 18 17 16 16 18 18 18
5 2 4 7 16 13 7 9 9 11 18 7 13 14 6 2 3 5 6 7 8 8 12 13 18 20 17 8 21 23 21 21 21 20 20 21 19 18 16 18 18 18 18 18
3 3 6 6 2 3 8 13 10 14 15 12 13 3 2 4 3 4 7 7 10 10 13 19 23 20 13 11 20 22 21 21 22 22 21 22 20 20 18 20 21 20 19 18
2 4 9 9 9 4 4 6 9 15 15 10 6 5 2 3 4 5 6 8 9 13 17 21 22 29 22 13 18 21 22 25 28 25 24 25 24 22 21 21 21 21 19 18
3 4 5 5 1 2 3 7 8 15 3 1 2 5 1 2 5 6 5 9 11 14 13 17 20 22 14 6 15 16 20 23 28 29 30 29 27 27 25 25 25 24 22 21
11 4 6 5 8 2 2 4 4 10 6 2 2 2 4 2 5 5 7 10 11 10 9 15 21 19 12 14 13 9 12 16 19 25 30 29 30 28 29 28 29 29 30 26
2 2 6 4 4 3 0 8 7 10 7 3 2 4 6 6 7 8 10 11 12 11 13 18 21 15 14 17 12 11 20 22 21 20 26 28 31 29 31 34 34 32 32 31
3 3 3 6 5 7 1 4 5 5 5 1 4 4 6 6 9 10 10 12 13 13 14 17 20 18 14 16 11 15 23 24 23 25 27 30 30 28 30 30 30 28 30 31
2 2 8 10 5 4 6 10 8 4 6 6 6 7 7 8 8 9 11 12 14 14 14 15 18 20 19 15 16 24 24 27 26 25 33 33 30 29 29 26 25 27 33 31
3 5 9 2 9 6 6 3 9 8 9 9 7 7 7 6 6 7 11 14 13 14 13 13 13 15 15 13 16 25 25 23 26 27 30 36 32 30 31 26 28 28 30 31
2 7 4 5 7 10 12 12 8 8 9 10 8 7 6 6 8 9 10 12 12 13 12 13 13 14 13 13 17 19 21 21 22 26 30 33 35 38 36 36 37 37 32 38
6 15 8 6 10 11 13 10 11 10 10 7 9 8 8 6 11 10 12 14 14 13 12 13 14 15 14 13 18 23 21 22 25 27 29 32 33 35 38 40 39 39 37 36
15 15 11 15 9 9 10 9 13 13 10 9 8 10 9 9 10 12 13 12 14 16 16 17 19 19 15 18 24 27 28 25 24 25 26 28 30 32 34 34 32 34 34 33
16 11 9 10 13 14 9 7 8 8 7 7 9 8 8 7 8 10 11 14 18 18 17 18 18 19 18 22 26 25 25 24 25 26 25 28 29 31 32 32 31 31 33 30
13 9 12 12 13 13 12 10 6 5 5 4 6 7 7 9 9 11 12 12 13 13 15 19 21 22 22 26 28 30 30 28 28 28 28 29 29 30 30 29 29 27 26 27
12 14 15 13 13 13 11 8 6 4 4 5 7 7 7 8 10 11 14 17 19 19 19 20 21 24 25 26 26 26 27 29 29 28 25 26 26 26 25 26 25 25 24 20
9 8 9 10 10 10 10 8 7 6 4 5 8 9 9 8 7 10 13 17 20 22 20 19 21 22 24 24 25 27 28 26 25 26 25 24 24 24 25 26 25 25 24 21
10 9 11 10 12 11 9 9 8 6 6 7 9 9 11 12 11 12 16 17 15 16 17 18 20 22 22 22 25 26 28 28 26 25 25 27 27 26 26 26 25 25 25 24
10 11 12 11 11 12 10 9 6 7 7 10 12 11 12 13 14 15 18 18 16 14 14 16 19 21 21 21 22 24 25 25 25 25 25 25 25 25 26 26 26 26 24 23
8 10 10 10 10 12 12 9 6 8 9 10 12 11 12 14 16 14 13 13 13 14 15 16 18 18 18 19 20 23 23 24 25 25 25 25 26 26 26 25 25 24 23 22
8 8 10 10 10 11 13 10 8 9 11 13 15 16 17 15 18 19 16 13 11 13 16 17 16 17 18 18 20 22 23 24 25 25 25 25 26 26 25 23 23 22 20 19
5 6 7 9 9 7 11 12 10 10 12 12 14 14 14 13 11 10 8 11 14 15 17 17 17 16 18 20 21 23 24 25 25 25 24 24 24 24 23 22 20 19 17 14
3 5 5 5 5 8 9 9 10 11 12 13 13 13 15 16 16 15 15 14 15 16 17 15 15 16 20 21 22 23 23 24 24 23 23 22 21 20 19 18 16 14 12 11
1 2 3 5 8 7 7 7 10 10 12 13 12 12 12 12 13 15 16 16 15 17 18 14 14 17 20 20 21 21 21 21 21 21 20 19 18 16 15 13 12 11 10 7
0 2 4 3 3 3 3 4 8 8 10 13 13 13 15 17 18 17 17 17 17 17 17 16 16 17 18 19 19 19 19 19 18 17 16 15 14 12 12 11 10 8 6 4
4 3 3 4 3 2 3 5 7 8 9 12 14 13 16 17 17 18 17 17 17 17 18 17 16 17 18 18 18 17 17 16 15 15 13 12 11 10 10 8 6 4 4 4
Wind_Direction
251 255 299 265 242 205 197 189 177 267 267 277 283 287 293 297 208 328 16 32 346 315 336 337 341 254 197 182 179 187 180 187 189 196 194 197 200 201 194 190 189 191 187 180
295 280 246 253 256 247 257 273 245 258 266 260 274 283 279 288 228 299 321 327 287 313 321 334 334 325 251 181 179 184 178 180 182 186 191 195 200 195 192 190 181 177 177 177
261 200 275 276 246 230 223 225 225 239 248 271 276 274 273 291 11 15 350 351 327 326 328 331 328 313 304 227 183 179 177 174 184 191 188 192 190 185 181 174 173 167 163 163
261 240 237 248 304 202 226 246 243 258 259 263 258 252 179 70 18 345 323 3 342 339 332 326 319 312 293 290 186 176 170 174 177 185 186 192 184 170 163 155 153 148 145 147
189 217 286 302 275 215 202 269 253 261 259 252 201 168 254 46 44 29 0 357 346 340 330 323 327 313 323 283 182 169 172 169 176 183 172 169 162 157 155 150 143 138 135 137
175 218 230 241 350 143 145 284 346 317 273 77 86 214 168 8 28 21 7 8 349 337 333 328 323 320 345 297 165 170 175 177 178 180 175 169 163 157 151 148 138 134 124 124
221 213 277 250 281 298 139 283 321 313 320 244 184 189 124 43 35 8 13 350 346 344 355 340 338 350 16 30 60 113 150 160 163 173 167 162 157 157 152 140 130 115 110 109
99 136 269 9 354 176 34 308 286 286 273 298 47 68 68 24 357 5 8 355 5 8 9 5 2 8 23 40 30 106 128 132 135 140 145 144 142 136 132 125 112 105 100 93
217 229 332 323 312 283 239 309 286 312 323 153 66 56 47 18 3 4 1 0 5 16 20 19 12 21 30 32 57 69 104 98 105 121 112 120 112 110 109 112 114 113 109 107
274 8 305 305 303 342 114 263 301 23 16 34 56 47 51 39 13 358 358 2 7 21 22 24 20 28 40 48 72 79 72 83 90 90 101 104 108 110 109 114 115 119 118 115
282 276 302 318 329 338 348 302 74 45 42 41 52 44 49 52 30 11 0 0 19 22 26 29 29 37 41 60 86 84 82 80 84 86 87 89 86 91 94 99 112 115 114 116
296 298 305 303 8 49 56 49 50 72 50 45 46 41 43 47 46 31 17 14 29 26 25 31 39 42 46 70 90 85 89 89 93 94 96 98 99 93 98 110 119 121 119 120
331 320 25 65 45 48 66 55 51 57 49 45 44 40 33 41 33 38 33 26 29 33 41 46 50 53 60 79 103 94 91 97 99 101 104 107 106 105 103 92 97 103 108 112
6 2 7 17 359 57 78 78 69 65 54 50 45 49 49 48 38 35 36 41 59 55 50 58 61 58 74 91 97 98 97 95 97 102 106 108 110 110 108 108 104 96 99 105
357 14 3 359 16 20 35 63 66 65 62 54 48 49 48 52 45 40 51 62 70 69 68 75 77 76 95 99 94 92 93 94 99 101 104 107 107 106 105 106 105 104 104 103
334 356 3 13 11 12 14 18 63 77 88 91 83 71 70 72 65 61 66 72 67 48 58 72 75 87 99 101 95 91 91 96 96 97 97 97 98 100 102 104 105 104 103 109
352 354 353 355 356 357 12 11 20 52 85 93 101 110 105 96 83 71 69 79 82 77 78 79 83 97 102 103 99 96 96 96 100 96 94 100 104 105 108 108 105 102 108 125
3 346 347 341 343 343 351 6 13 30 57 91 107 107 97 89 85 78 79 84 80 73 75 90 104 106 108 111 108 107 104 100 97 97 101 99 99 102 105 106 108 111 119 125
8 358 351 350 355 347 1 7 25 51 81 102 100 90 93 89 88 86 90 78 67 65 58 91 105 111 112 120 122 118 113 110 104 100 103 107 106 110 112 117 118 122 128 129
9 8 4 359 8 9 1 3 28 63 82 107 107 96 86 85 92 87 82 70 69 84 104 105 110 109 113 119 122 119 115 111 111 111 113 110 111 115 122 127 128 128 129 128
11 11 10 5 5 17 20 19 52 74 86 104 105 94 91 93 98 93 81 79 77 100 103 105 109 110 115 122 125 123 121 116 114 115 118 118 122 126 129 131 132 133 131 129
359 13 14 19 26 26 28 40 67 89 99 105 112 114 103 91 95 91 95 93 105 111 109 107 109 118 123 127 125 126 128 129 128 131 131 133 134 134 134 135 134 134 133 133
9 9 19 23 30 40 49 55 68 89 98 107 113 113 98 97 103 97 85 97 109 111 108 108 118 125 127 124 125 127 129 130 131 133 134 136 136 137 138 137 137 135 133 136
24 27 34 41 56 60 50 51 74 86 100 105 109 118 119 103 90 103 112 116 116 112 106 112 118 123 123 122 123 124 126 127 128 131 131 131 132 134 135 135 132 133 135 137
75 43 44 58 77 76 87 87 89 93 99 100 105 111 120 124 118 123 119 116 116 113 108 111 114 118 117 119 121 122 124 126 128 130 130 131 130 131 133 136 136 138 138 137
59 47 69 73 87 117 114 116 101 107 112 95 96 108 115 121 123 121 118 116 113 111 106 108 111 114 115 118 120 121 123 125 128 128 129 129 130 131 134 139 144 146 151 157
116 126 107 85 68 70 100 119 120 109 120 115 104 117 125 124 122 119 117 113 112 109 109 110 113 115 117 119 120 121 122 123 126 128 130 130 132 134 138 146 154 168 176 183